Regional Weather Roundup
Issued by NWS

Home | Current Version | Previous Version | Text Only | Print | Product List | Glossary On
Versions: 1 2 3 4 5 6 7 8 9 10 11 12 13 14 15 16 17 18 19 20 21 22 23 24 25 26 27
000
ASUS45 KBOU 301910
RWRCO

WEATHER ROUNDUP FOR COLORADO
NATIONAL WEATHER SERVICE DENVER/BOULDER CO
100 PM MDT FRI SEP 30 2016

NOTE: "FAIR" INDICATES FEW OR NO CLOUDS BELOW 12000 FEET WITH NO
SIGNIFICANT WEATHER AND/OR OBSTRUCTIONS TO VISIBILITY.

COZ001>005-013-030-031-302000-
...NORTHWEST COLORADO...

CITY           SKY/WX    TMP DP  RH WIND       PRES   REMARKS
CRAIG          FAIR      67  45  45 W12       30.31F
HAYDEN         FAIR      61  46  59 NE3       30.33F
MEEKER         PTSUNNY   65  50  58 S9        30.32F
MOUNT WERNER   NOT AVBL
STEAMBOAT SPGS CLOUDY    58  47  68 CALM      30.35F
WALDEN           N/A     55  41  58 SW10      30.41F
$$

COZ006>008-011-302000-
...WEST CENTRAL VALLEYS...

CITY           SKY/WX    TMP DP  RH WIND       PRES   REMARKS
GRAND JUNCTION FAIR      66  56  70 W3        30.28F
MONTROSE       FAIR      66  48  52 VRB5      30.32F
EAGLE          PTSUNNY   63  48  59 CALM      30.36F
RIFLE          PTSUNNY   67  51  56 NW6       30.30F
DELTA          NOT AVBL
NUCLA          LGT RAIN  61  52  72 NW5       30.37F
$$

COZ017>023-064>068-302000-
...SOUTHWEST COLORADO...

CITY           SKY/WX    TMP DP  RH WIND       PRES   REMARKS
DURANGO        FAIR      66  46  48 VRB5      30.34F
CORTEZ         PTSUNNY   69  51  52 W8        30.32F
PAGOSA SPRINGS FAIR      65  37  35 SW5       30.38F
TELLURIDE      FAIR      57  42  56 SW5       30.47F
WOLF CREEK PAS PTSUNNY   45  37  76 MISG      30.63F
$$

COZ009-010-012-014-032>034-037-058>063-302000-
...CENTRAL COLORADO...

CITY           SKY/WX    TMP DP  RH WIND       PRES   REMARKS
ASPEN          PTSUNNY   61  42  49 NW6       30.38F
BUENA VISTA    PTSUNNY   69  36  29 NE3       30.33F
COPPER MTN     CLOUDY    45  39  81 NW9       30.60F
BERTHOUD PASS  HAZE      34  23  64 N18G24    30.61F VSB<1/4 WCI  23
COTTONWOOD PAS PTSUNNY   61  32  33 SW9G17    30.46F
GUNNISON       PTSUNNY   61  43  51 CALM      30.39F
KREMMLING      LGT RAIN  54  46  76 CALM      30.40F
LEADVILLE      PTSUNNY   55  36  48 NW8       30.47F
MONARCH PASS   PTSUNNY   43  39  87 SW13      30.70F
SALIDA         PTSUNNY   73  36  26 SW8       30.39F
SUNLIGHT       FAIR      50  45  81 W6        30.58F
WILKERSON PASS CLOUDY    46  32  57 NE3       30.57F
$$

COZ069>075-302000-
...SAN LUIS VALLEY/SANGRE DE CRISTO MOUNTAINS...

CITY           SKY/WX    TMP DP  RH WIND       PRES   REMARKS
ALAMOSA        FAIR      68  39  34 VRB5      30.34F
LA VETA PASS   PTSUNNY   61  37  41 MISG      30.50F
SAGUACHE       FAIR      68  37  32 NW14G22   30.36F
$$

COZ035-036-038>040-302000-
...NORTHERN COLORADO FRONT RANGE...

CITY           SKY/WX    TMP DP  RH WIND       PRES   REMARKS
DENVER INTL AP PTSUNNY   71  45  39 N16       30.24F
DMNS CITY PARK   N/A     68  45  43 N3G13     30.24S
AURORA         PTSUNNY   70  45  40 NE12      30.25F
FRONT RANGE AP NOT AVBL
ERIE MUNI ARPT PTSUNNY   64  44  47 CALM      30.24F
BOULDER MUN AP FAIR      64  45  48 CALM      30.24F
CENTENNIAL     PTSUNNY   69  43  38 NE9       30.26F
BROOMFIELD     NOT AVBL
FORT COLLINS   PTSUNNY   61  52  72 S6        30.22F
LONGMONT       CLOUDY    67  48  51 S3        30.25F
$$

COZ041-046-047-076>085-087-088-302000-
...PIKES PEAK/PALMER DIVIDE AND SOUTHERN FOOTHILLS...

CITY           SKY/WX    TMP DP  RH WIND       PRES   REMARKS
COLO. SPRINGS  PTSUNNY   73  41  31 N16G22    30.25F
A. F. ACADEMY  FAIR      69  42  37 N16G25    30.27S
SCHRIEVER AFB  NOT AVBL
ELLICOTT       NOT AVBL
FALCON         FAIR      70  39  32 N16G24    30.30F
FORT CARSON    CLOUDY    76  41  28 N17G24    30.21F
LIMON          FAIR      75  40  28 CALM      30.20F
MONUMENT HILL  CLOUDY    63  41  45 N10G17    30.33F
TRINIDAD       FAIR      79  36  21 S6        30.20F
$$

COZ042>045-048>051-090-091-302000-
...NORTHEAST COLORADO...

CITY           SKY/WX    TMP DP  RH WIND       PRES   REMARKS
GREELEY ARPT   PTSUNNY   68  48  49 N5        30.22F
AKRON          FAIR      70  41  34 E10       30.19F
BURLINGTON     FAIR      68  44  42 SE16      30.18F
WRAY           NOT AVBL
STERLING       FAIR      68  45  42 NE3       30.17F
HOLYOKE        FAIR      73  46  38 SE6       30.19F
FORT MORGAN    FAIR      77  42  27 NE10      30.19F
$$

COZ086-089-092>099-302000-
...SOUTHEAST COLORADO...

CITY           SKY/WX    TMP DP  RH WIND       PRES   REMARKS
PUEBLO         FAIR      82  42  24 E9        30.13F
LA JUNTA       FAIR      72  43  35 VRB3      30.14F
LAMAR          FAIR      76  44  32 VRB5      30.11F
SPRINGFIELD      N/A     80  46  30 S14G20    30.14F
$$




USA.gov is the U.S. government's official web portal to all federal, state and local government web resources and services.